Location: 10033 Water Well
(34.0865°N, 106.8959°W)
Time: 17:15:56
(UTC+00:00)

Cosmos 1850 Rocket - Pass Details

Date: 13 January 2026
Orbit: 749 x 781 km, 74.0° (Epoch: 10 February)

Event Time Altitude Azimuth Distance (km) Brightness Sun altitude
Rises 01:34:34 0° 350° (N) 3,256 7.2 -15.5°
Reaches altitude 10° 01:37:04 10° 358° (N) 2,329 6.4 -16.0°
Maximum altitude 01:42:05 43° 69° (ENE) 1,092 4.3 -17.0°
Drops below altitude 10° 01:47:06 10° 140° (SE) 2,327 6.2 -18.0°
Sets 01:49:36 0° 147° (SSE) 3,252 7.1 -18.5°
